Погода в Рассказово

Россия / Тамбовская область     52°39′13″N   41°52′27″E
темп.,
°C
ветер,
м/с
пор.,
м/с
влажн.,
%
обл.,
%
осадки,
мм/ч
давл.,
гПа
погр.,
м
21 октября, чт
чт2100:00+3ююз51359100 0.0 1020565
03:00+3ююз71772100 0.9 1016759
06:00+4юз71881100 2.1 1012816
09:00+7юз71771100 2.6 1010740
12:00+9юз71877100 0.9 1009781
15:00+13зюз81767100 0.9 1008919
18:00+13юз7176699 0.0 1007776
21:00+12юз71767100 0.0 1007739
22 октября, пт
пт2200:00+12юз71666100 0.0 1006827
03:00+10юз7166811 0.0 1005755
06:00+9юз71771100 0.0 1004726
09:00+10юз71573100 0.0 1004762
12:00+12зюз7146998 0.0 1005878
15:00+14зюз7146299 0.0 10061458
18:00+12зюз513655 0.0 1008777
21:00+10зюз412695 0.0 1010407
23 октября, сб
сб2300:00+9зюз5126916 0.1 1010645
03:00+8юз513655 0.1 1011524
06:00+6юз4137262 0.0 1011375
09:00+9юз5136495 0.0 1011817
12:00+12юз5145067 0.0 10111614
15:00+12зюз5115299 0.0 10101953
18:00+10зюз276169 0.1 1010205
21:00+9з41056100 0.2 10121089
24 октября, вс
вс2400:00+6з410665 0.0 1013583
03:00+4зюз410814 0.0 1014504
06:00+3зюз410865 0.0 1014430
09:00+4зюз48765 0.0 1015458
12:00+7зюз585990 0.0 10151243
15:00+7з5864100 0.1 10141192
18:00+4з378012 0.2 1015335
21:00+2зюз259111 0.2 1016144
25 октября, пн
пн2500:00+3сз2585100 0.0 1017449
03:00+2сз369167 0.0 1018392
06:00+2ссз4996100 0.1 1021583
09:00+2с598490 0.3 1024729
12:00+2с5766100 0.0 10261010
15:00+2с5865100 0.0 10281151
18:00+1с39669 0.0 1031320
21:00−1с28725 0.0 1033205